EW6135 Weather Reports


Display with metric or nautical units.
time (UTC)temp
F
wind
direction
speed
MPH
gust
MPH
rain 1hr
in
rain 24hr
in
rain mn
in
humidity
%
barometer
mb
20260510134518 72 279 0.0 2.0 0.00 0.03 0.00 89 1014.8
20260510134016 71 243 0.0 2.0 0.00 0.03 0.00 92 1014.8
20260510133519 71 277 0.0 2.0 0.00 0.03 0.00 92 1014.8
20260510133013 70 278 1.0 2.0 0.00 0.03 0.00 93 1014.9
20260510132512 70 243 0.0 3.0 0.00 0.03 0.00 96 1014.9
20260510132011 69 243 0.0 4.0 0.00 0.03 0.00 97 1014.8
20260510131510 69 224 1.0 4.0 0.00 0.03 0.00 98 1014.8
20260510131009 68 256 1.0 4.0 0.00 0.03 0.00 99 1014.9
20260510130508 68 240 0.0 3.0 0.00 0.03 0.00 99 1014.9
20260510130007 67 264 1.0 3.0 0.00 0.03 0.00 99 1014.8
20260510125507 67 218 0.0 3.0 0.00 0.03 0.00 99 1014.7
20260510124506 67 276 0.0 3.0 0.00 0.03 0.00 99 1014.6
20260510124005 67 268 0.0 2.0 0.00 0.03 0.00 100 1014.5
20260510123504 67 272 0.0 1.0 0.00 0.03 0.00 100 1014.5
20260510123004 66 272 0.0 1.0 0.00 0.03 0.00 100 1014.6
20260510122501 66 115 0.0 1.0 0.00 0.03 0.00 100 1014.6
20260510122100 65 115 0.0 1.0 0.00 0.03 0.00 100 1014.5
20260510121607 65 115 0.0 1.0 0.00 0.03 0.00 100 1014.5
20260510121102 64 115 0.0 0.0 0.00 0.03 0.00 100 1014.5
20260510120557 64 115 0.0 1.0 0.00 0.03 0.00 100 1014.5
20260510120057 64 115 0.0 1.0 0.00 0.03 0.00 100 1014.4
20260510115556 63 115 0.0 0.0 0.00 0.03 0.00 100 1014.4
20260510114611 63 115 0.0 0.0 0.00 0.03 0.00 100 1014.2
20260510114054 62 115 0.0 0.0 0.00 0.03 0.00 100 1014.3
20260510113553 62 115 0.0 0.0 0.00 0.03 0.00 100 1014.3
20260510113058 62 115 0.0 0.0 0.00 0.03 0.00 100 1014.1
20260510112552 62 115 0.0 0.0 0.00 0.03 0.00 100 1014.1
20260510112053 61 113 0.0 0.0 0.00 0.03 0.00 100 1014.0
20260510111552 61 113 0.0 0.0 0.00 0.03 0.00 100 1014.1
20260510111052 61 113 0.0 0.0 0.00 0.03 0.00 100 1014.0
20260510110554 61 113 0.0 0.0 0.00 0.03 0.00 100 1013.9
20260510110050 61 113 0.0 0.0 0.00 0.03 0.00 100 1013.7
20260510105551 61 113 0.0 0.0 0.00 0.03 0.00 99 1013.7
20260510104556 60 113 0.0 0.0 0.00 0.03 0.00 99 1013.5
20260510104048 60 113 0.0 0.0 0.00 0.03 0.00 99 1013.4
20260510103548 60 113 0.0 0.0 0.00 0.03 0.00 99 1013.4
20260510103048 60 113 0.0 0.0 0.00 0.03 0.00 99 1013.4
20260510102547 60 113 0.0 0.0 0.00 0.03 0.00 99 1013.3
20260510102046 60 113 0.0 0.0 0.00 0.03 0.00 99 1013.3
20260510101547 60 113 0.0 0.0 0.00 0.03 0.00 99 1013.1
20260510101044 60 113 0.0 0.0 0.00 0.03 0.00 99 1013.1
20260510100544 60 113 0.0 0.0 0.00 0.03 0.00 99 1013.1
20260510100057 61 113 0.0 0.0 0.00 0.03 0.00 99 1013.1
20260510095544 61 113 0.0 0.0 0.00 0.03 0.00 99 1013.0
20260510094551 61 113 0.0 0.0 0.00 0.03 0.00 99 1012.8
20260510094042 61 113 0.0 0.0 0.00 0.03 0.00 100 1012.9
20260510093541 61 113 0.0 0.0 0.00 0.03 0.00 99 1012.8
20260510093041 61 113 0.0 0.0 0.00 0.03 0.00 99 1012.8
20260510092540 61 113 0.0 0.0 0.00 0.03 0.00 99 1012.8
20260510092039 60 113 0.0 0.0 0.00 0.03 0.00 99 1012.7
20260510091539 60 113 0.0 0.0 0.00 0.00 0.00 99 1012.7
20260510091038 60 113 0.0 0.0 0.00 0.03 0.00 99 1012.7
20260510090540 60 113 0.0 0.0 0.00 0.03 0.00 99 1012.7
20260510090037 61 113 0.0 0.0 0.00 0.03 0.00 99 1012.6
20260510085537 60 113 0.0 0.0 0.00 0.03 0.00 99 1012.5
20260510084538 61 290 0.0 0.0 0.00 0.03 0.00 99 1012.5
20260510084038 61 290 0.0 0.0 0.00 0.03 0.00 99 1012.4
20260510083537 61 290 0.0 0.0 0.00 0.03 0.00 99 1012.4
20260510083042 61 290 0.0 0.0 0.00 0.03 0.00 99 1012.4
20260510082537 61 290 0.0 1.0 0.00 0.03 0.00 99 1012.4
20260510082035 61 290 0.0 1.0 0.00 0.03 0.00 99 1012.3
20260510081536 61 290 0.0 0.0 0.00 0.03 0.00 99 1012.3
20260510081035 61 290 0.0 0.0 0.00 0.03 0.00 99 1012.1
20260510080534 61 290 0.0 0.0 0.00 0.03 0.00 99 1012.1
20260510080033 61 290 0.0 0.0 0.00 0.03 0.00 99 1012.1
20260510075537 61 290 0.0 0.0 0.00 0.03 0.00 99 1012.0
20260510074537 61 290 0.0 1.0 0.00 0.03 0.00 99 1011.9
20260510074034 61 290 0.0 0.0 0.00 0.03 0.00 99 1011.9
20260510073530 61 290 0.0 0.0 0.00 0.03 0.00 99 1011.9
20260510073033 61 290 0.0 0.0 0.00 0.03 0.00 99 1011.9
20260510072531 61 290 0.0 0.0 0.00 0.03 0.00 99 1011.9
20260510072030 61 290 0.0 0.0 0.00 0.03 0.00 99 1012.0
20260510071532 61 290 0.0 0.0 0.00 0.03 0.00 99 1012.0
20260510071030 61 290 0.0 0.0 0.00 0.03 0.00 99 1011.9
20260510070529 61 290 0.0 0.0 0.00 0.03 0.00 99 1011.8
20260510070034 62 290 0.0 1.0 0.00 0.03 0.00 99 1011.7
20260510065529 62 290 0.0 1.0 0.00 0.03 0.00 99 1011.8
20260510064529 62 290 0.0 0.0 0.00 0.03 0.00 99 1011.8
20260510064028 62 290 0.0 0.0 0.00 0.03 0.00 99 1011.8
20260510063531 62 290 0.0 0.0 0.00 0.03 0.00 99 1011.9
20260510063030 62 290 0.0 0.0 0.00 0.03 0.00 99 1011.8
20260510062528 62 290 0.0 0.0 0.00 0.03 0.00 99 1011.8
20260510062028 62 290 0.0 0.0 0.00 0.03 0.00 99 1011.9
20260510061529 62 290 0.0 0.0 0.00 0.03 0.00 99 1011.9
20260510061027 63 290 0.0 0.0 0.00 0.03 0.00 99 1011.9
20260510060527 63 290 0.0 1.0 0.00 0.03 0.00 99 1011.8
20260510060029 63 290 0.0 1.0 0.00 0.03 0.00 99 1011.8
20260510055525 62 290 0.0 0.0 0.00 0.03 0.00 99 1011.8
20260510054524 63 290 0.0 0.0 0.00 0.03 0.00 99 1011.9
20260510054024 63 290 0.0 0.0 0.00 0.03 0.00 99 1012.0
20260510053524 63 290 0.0 0.0 0.00 0.03 0.00 99 1011.9
20260510053024 63 290 0.0 0.0 0.00 0.03 0.00 99 1012.0
20260510052523 63 290 0.0 0.0 0.00 0.03 0.00 99 1012.0
20260510052024 63 290 0.0 0.0 0.00 0.03 0.00 99 1012.0
20260510051523 63 290 0.0 0.0 0.00 0.03 0.00 99 1011.9
20260510051021 63 290 0.0 0.0 0.00 0.03 0.00 99 1012.0
20260510050521 63 290 0.0 0.0 0.00 0.03 0.00 99 1012.0
20260510050021 63 290 0.0 0.0 0.00 0.03 0.00 99 1012.0
20260510045522 63 290 0.0 0.0 0.00 0.03 0.00 99 1012.1
20260510044519 63 290 0.0 0.0 0.00 0.03 0.00 99 1012.3
20260510044022 63 290 0.0 0.0 0.00 0.03 0.00 99 1012.3
20260510043519 63 290 0.0 0.0 0.00 0.03 0.00 99 1012.3
20260510043018 63 290 0.0 0.0 0.00 0.03 0.00 99 1012.3
20260510042522 63 290 0.0 0.0 0.00 0.03 0.00 98 1012.2
20260510042017 64 290 0.0 0.0 0.00 0.03 0.00 99 1012.3
20260510041517 64 290 0.0 0.0 0.00 0.03 0.00 99 1012.3
20260510041016 64 290 0.0 0.0 0.00 0.03 0.00 99 1012.2
20260510040515 64 290 0.0 0.0 0.00 0.03 0.00 99 1012.3
20260510040015 64 290 0.0 0.0 0.00 0.03 0.00 98 1012.2
20260510035514 64 290 0.0 0.0 0.00 0.03 0.03 98 1012.1
20260510034517 64 290 0.0 0.0 0.00 0.03 0.03 98 1012.2
20260510034017 64 290 0.0 0.0 0.00 0.03 0.03 98 1012.2
20260510033516 64 290 0.0 0.0 0.00 0.03 0.03 98 1012.2
20260510033016 64 290 0.0 0.0 0.00 0.03 0.03 98 1012.1
20260510032516 64 290 0.0 0.0 0.00 0.03 0.03 98 1012.1
20260510032017 64 290 0.0 0.0 0.00 0.03 0.03 98 1012.1
20260510031523 64 290 0.0 0.0 0.00 0.03 0.03 98 1012.1
20260510031018 64 290 0.0 0.0 0.00 0.03 0.03 98 1012.1
20260510030516 64 290 0.0 1.0 0.00 0.03 0.03 98 1012.1
20260510030016 65 290 0.0 1.0 0.00 0.03 0.03 98 1012.2
20260510025516 64 290 0.0 0.0 0.00 0.03 0.03 98 1012.2
20260510024517 65 290 0.0 0.0 0.00 0.03 0.03 98 1012.1
20260510024013 65 290 0.0 0.0 0.00 0.03 0.03 98 1012.0
20260510023514 65 290 0.0 0.0 0.00 0.03 0.03 98 1012.1
20260510023014 65 290 0.0 0.0 0.00 0.03 0.03 98 1012.1
20260510022518 65 290 0.0 0.0 0.00 0.03 0.03 98 1012.1
20260510022014 65 290 0.0 0.0 0.00 0.03 0.03 98 1012.0
20260510021515 65 290 0.0 0.0 0.00 0.03 0.03 97 1011.9
20260510021013 65 290 0.0 0.0 0.00 0.03 0.03 97 1011.9
20260510020513 65 290 0.0 0.0 0.00 0.03 0.03 97 1011.8
20260510020013 66 290 0.0 0.0 0.00 0.03 0.03 97 1011.6
20260510015513 66 290 0.0 0.0 0.00 0.03 0.03 97 1011.7
20260510014513 66 290 0.0 0.0 0.00 0.03 0.03 97 1011.6
20260510014011 66 290 0.0 0.0 0.00 0.03 0.03 97 1011.5
20260510013514 67 290 0.0 1.0 0.00 0.03 0.03 97 1011.6
20260510013010 67 290 0.0 1.0 0.00 0.03 0.03 97 1011.3
20260510012511 67 290 0.0 1.0 0.00 0.03 0.03 97 1011.4
20260510012011 67 290 0.0 1.0 0.00 0.03 0.03 97 1011.4
20260510011510 67 290 0.0 0.0 0.00 0.03 0.03 96 1011.3
20260510011010 68 290 0.0 1.0 0.01 0.03 0.03 96 1011.5
20260510010508 68 290 0.0 1.0 0.01 0.03 0.03 97 1011.4
20260510010010 68 288 0.0 0.0 0.01 0.03 0.03 97 1011.4
20260510005509 68 113 0.0 1.0 0.01 0.03 0.03 97 1011.5
20260510005010 68 113 0.0 1.0 0.01 0.03 0.03 96 1011.4
20260510004508 68 113 0.0 1.0 0.02 0.03 0.03 96 1011.3
20260510004011 68 113 0.0 1.0 0.02 0.03 0.03 96 1011.2
20260510003508 68 113 0.0 1.0 0.02 0.03 0.03 96 1011.0
20260510003008 68 113 0.0 1.0 0.02 0.03 0.03 96 1010.9
20260510002507 68 113 0.0 1.0 0.02 0.03 0.03 96 1010.9
20260510001519 68 113 0.0 1.0 0.02 0.03 0.03 96 1010.9
20260510001007 68 113 0.0 1.0 0.02 0.03 0.03 95 1010.9
20260510000508 68 80 0.0 1.0 0.01 0.02 0.02 95 1010.8
20260510000007 68 82 0.0 3.0 0.01 0.02 0.02 95 1010.8
20260509235505 68 82 0.0 3.0 0.01 0.02 0.02 95 1010.6
20260509235005 69 238 0.0 1.0 0.01 0.02 0.02 95 1010.8
20260509234511 69 238 0.0 2.0 0.00 0.01 0.01 94 1010.7
20260509234006 69 239 0.0 2.0 0.00 0.01 0.01 94 1010.8
20260509233507 69 244 0.0 1.0 0.00 0.01 0.01 94 1010.6
20260509233006 69 244 0.0 4.0 0.00 0.01 0.01 94 1010.7
20260509232506 69 218 1.0 4.0 0.00 0.01 0.01 93 1010.6
20260509231507 69 89 0.0 3.0 0.00 0.01 0.01 93 1010.5
20260509231004 69 242 0.0 3.0 0.00 0.01 0.01 93 1010.6
20260509230505 69 180 0.0 1.0 0.00 0.01 0.01 93 1010.6
20260509230004 70 234 0.0 1.0 0.00 0.01 0.01 93 1010.6
20260509225504 70 234 0.0 3.0 0.00 0.01 0.01 93 1010.6
20260509225005 70 234 0.0 3.0 0.00 0.01 0.01 93 1010.6
20260509224506 70 113 0.0 2.0 0.00 0.01 0.01 92 1010.6
20260509224004 70 233 0.0 2.0 0.00 0.01 0.01 92 1010.7
20260509223504 70 243 0.0 3.0 0.00 0.01 0.01 92 1010.6
20260509223004 70 244 1.0 3.0 0.00 0.01 0.01 92 1010.7
20260509222504 70 245 0.0 1.0 0.00 0.01 0.01 92 1010.7
20260509221505 70 245 0.0 4.0 0.00 0.01 0.01 92 1010.7
20260509221006 70 262 0.0 6.0 0.00 0.01 0.01 92 1010.8
20260509220505 70 263 1.0 6.0 0.00 0.01 0.01 91 1010.9
20260509220006 70 248 0.0 4.0 0.00 0.01 0.01 91 1010.8
20260509215505 70 253 0.0 5.0 0.00 0.01 0.01 91 1010.8
20260509215005 70 98 0.0 3.0 0.00 0.01 0.01 91 1010.9
20260509214505 70 240 0.0 3.0 0.00 0.01 0.01 91 1010.8
20260509214004 70 250 0.0 4.0 0.00 0.01 0.01 90 1010.7
20260509213506 70 255 0.0 4.0 0.00 0.01 0.01 90 1010.7
20260509213006 70 138 0.0 3.0 0.00 0.01 0.01 90 1010.6
20260509212504 70 282 0.0 3.0 0.00 0.01 0.01 89 1010.6
20260509211502 71 151 0.0 3.0 0.00 0.01 0.01 89 1010.6
20260509211005 71 250 0.0 4.0 0.00 0.01 0.01 89 1010.5
20260509210502 71 245 0.0 4.0 0.00 0.01 0.01 88 1010.4
20260509210002 71 223 0.0 4.0 0.00 0.01 0.01 87 1010.5
20260509205503 71 224 0.0 2.0 0.00 0.01 0.01 87 1010.7
20260509205000 71 255 0.0 5.0 0.00 0.01 0.01 87 1010.6
20260509204605 71 264 0.0 5.0 0.00 0.01 0.01 86 1010.6
20260509204100 72 243 1.0 5.0 0.00 0.01 0.01 85 1010.6
20260509203600 72 222 0.0 5.0 0.00 0.01 0.01 86 1010.6
20260509203101 72 252 1.0 5.0 0.00 0.01 0.01 85 1010.6
20260509202559 72 264 0.0 2.0 0.00 0.01 0.01 85 1010.7
20260509202159 72 238 0.0 4.0 0.00 0.01 0.01 85 1010.8
20260509201501 72 238 0.0 4.0 0.00 0.01 0.01 86 1010.7
20260509201003 72 248 0.0 5.0 0.00 0.01 0.01 86 1010.7
20260509200600 71 233 1.0 8.0 0.00 0.01 0.01 85 1010.7
20260509200100 72 212 2.0 8.0 0.00 0.01 0.01 84 1010.6
20260509195600 72 259 0.0 8.0 0.00 0.01 0.01 85 1010.8
20260509195059 72 253 4.0 8.0 0.00 0.01 0.01 83 1010.9
20260509194559 72 248 0.0 7.0 0.00 0.01 0.01 84 1010.7
20260509194101 72 145 0.0 7.0 0.00 0.01 0.01 84 1010.9
20260509193559 72 102 0.0 6.0 0.00 0.01 0.01 84 1010.9
20260509193100 72 250 1.0 6.0 0.00 0.01 0.01 82 1011.0
20260509192557 72 286 1.0 8.0 0.00 0.01 0.01 82 1010.9
20260509192158 73 251 0.0 5.0 0.00 0.01 0.01 81 1011.2
20260509191606 73 229 1.0 5.0 0.00 0.01 0.01 80 1011.3
20260509191058 73 245 0.0 5.0 0.00 0.01 0.01 81 1011.2
20260509190554 73 250 1.0 6.0 0.00 0.01 0.01 80 1011.2
20260509190059 74 286 0.0 7.0 0.00 0.01 0.01 80 1011.4
20260509185554 73 251 0.0 9.0 0.00 0.01 0.01 80 1011.3
20260509185052 73 248 4.0 10.0 0.00 0.01 0.01 78 1011.3
20260509184553 73 262 3.0 10.0 0.00 0.01 0.01 79 1011.3
20260509184053 74 248 2.0 11.0 0.00 0.01 0.01 79 1011.2
20260509183552 74 203 6.0 11.0 0.00 0.01 0.01 77 1011.3
20260509183052 74 203 3.0 13.0 0.00 0.01 0.01 77 1011.3
20260509182551 75 205 4.0 13.0 0.00 0.01 0.01 76 1011.4
20260509182151 75 231 4.0 9.0 0.00 0.01 0.01 76 1011.5
20260509181602 75 219 4.0 9.0 0.00 0.01 0.01 75 1011.5
20260509181053 75 277 2.0 9.0 0.00 0.01 0.01 78 1011.4
20260509180552 75 274 4.0 8.0 0.00 0.01 0.01 76 1011.6
20260509180053 75 153 2.0 10.0 0.00 0.01 0.01 75 1011.5
20260509175551 76 347 3.0 10.0 0.00 0.01 0.01 75 1011.5
20260509175051 76 169 1.0 8.0 0.00 0.01 0.01 75 1011.7
20260509174601 77 237 3.0 8.0 0.00 0.01 0.01 75 1011.8
20260509174051 76 117 1.0 5.0 0.00 0.01 0.01 74 1011.8
20260509173550 76 226 1.0 8.0 0.00 0.01 0.01 76 1011.9
20260509173059 77 234 1.0 7.0 0.00 0.01 0.01 74 1011.8
20260509172549 77 231 1.0 4.0 0.00 0.01 0.01 75 1011.9
20260509172150 76 244 2.0 8.0 0.00 0.01 0.01 76 1012.1
20260509171551 76 232 2.0 8.0 0.00 0.01 0.01 75 1012.1
20260509171045 76 220 2.0 8.0 0.00 0.01 0.01 76 1012.2
20260509170544 76 74 2.0 5.0 0.00 0.01 0.01 76 1012.4
20260509170045 75 266 1.0 6.0 0.00 0.01 0.01 79 1012.4
20260509165541 74 236 1.0 6.0 0.00 0.01 0.01 78 1012.3
20260509165041 74 230 1.0 5.0 0.00 0.01 0.01 79 1012.3
20260509164545 74 158 0.0 5.0 0.01 0.01 0.01 82 1012.3
20260509164039 74 109 1.0 5.0 0.01 0.01 0.01 81 1012.3
20260509163537 73 350 1.0 5.0 0.01 0.01 0.01 81 1012.5
20260509163037 73 249 0.0 3.0 0.01 0.01 0.01 82 1012.7
20260509162535 72 275 0.0 3.0 0.01 0.01 0.01 81 1012.8
20260509162136 71 252 0.0 2.0 0.01 0.01 0.01 84 1012.8
20260509161534 71 258 0.0 2.0 0.01 0.01 0.01 86 1012.8
20260509161038 70 235 0.0 2.0 0.01 0.01 0.01 86 1012.9
20260509160532 70 235 0.0 3.0 0.01 0.01 0.01 86 1012.9
20260509160032 70 250 0.0 3.0 0.01 0.01 0.01 89 1012.9
20260509155531 70 330 0.0 2.0 0.01 0.01 0.01 90 1013.0
20260509155034 69 27 0.0 2.0 0.01 0.01 0.01 91 1013.2
20260509154535 69 23 0.0 2.0 0.00 0.00 0.00 91 1013.2
20260509154032 69 23 0.0 2.0 0.00 0.00 0.00 90 1013.2
20260509153530 69 23 0.0 3.0 0.00 0.00 0.00 89 1013.4
20260509153033 69 23 1.0 3.0 0.00 0.00 0.00 88 1013.6
20260509152531 69 29 0.0 2.0 0.00 0.00 0.00 89 1013.7
20260509152131 69 276 0.0 0.0 0.00 0.00 0.00 91 1013.9
20260509151533 69 276 0.0 0.0 0.00 0.00 0.00 90 1013.9
20260509151030 69 276 0.0 2.0 0.00 0.00 0.00 90 1014.0
20260509150530 69 276 0.0 2.0 0.00 0.00 0.00 89 1014.0
20260509150031 69 276 0.0 1.0 0.00 0.00 0.00 89 1014.1
20260509145530 69 276 0.0 1.0 0.00 0.00 0.00 88 1014.1
20260509145033 70 276 0.0 2.0 0.00 0.00 0.00 88 1014.0
20260509144529 70 276 0.0 2.0 0.00 0.00 0.00 87 1014.0
20260509144030 70 267 0.0 1.0 0.00 0.00 0.00 87 1013.9
20260509143532 70 267 0.0 1.0 0.00 0.00 0.00 87 1013.7
20260509143031 70 53 0.0 0.0 0.00 0.00 0.00 88 1013.7
20260509142525 69 53 0.0 0.0 0.00 0.00 0.00 89 1013.6
20260509142125 68 53 0.0 0.0 0.00 0.00 0.00 92 1013.7
20260509141524 68 53 0.0 0.0 0.00 0.00 0.00 92 1013.6
20260509141024 67 53 0.0 0.0 0.00 0.00 0.00 92 1013.6
20260509140524 67 53 0.0 0.0 0.00 0.00 0.00 92 1013.7
20260509140034 67 53 0.0 0.0 0.00 0.00 0.00 92 1013.9
20260509135526 67 53 0.0 0.0 0.00 0.00 0.00 93 1013.7